This demonstration page uses our WeatherBlox Daily Observations layout. Learn more.

41.55636, -103.73856

Hourly Observations for December 7, 2019

Temp ( °F °C ) Dew Point ( °F °C ) Humidity (%) Winds ( mph kmh ) Pressure ( in mb ) Visibility ( mi km ) Precip ( " mm )
12:58 am 00:58 Clear 34 1.3 28 -2 79 79 WSW 7 11 30.29 1026 10 16.0934 0 0
1:58 am 01:58 Clear 37 3 29 -1.8 71 71 W 13 20 30.27 1025 10 16.0934 0 0
2:58 am 02:58 Clear 31 -0.6 26 -3.2 83 83 SW 9 15 30.29 1026 10 16.0934 0 0
3:58 am 03:58 Clear 33 0.8 27 -2.8 77 77 SW 10 17 30.24 1024 10 16.0934 0 0
4:58 am 04:58 Clear 34 1.3 26 -3.1 73 73 SW 7 11 30.23 1024 10 16.0934 0 0
5:58 am 05:58 Clear 30 -1.1 24 -4.3 79 79 WSW 6 9 30.23 1024 10 16.0934 0 0
6:58 am 06:58 Clear 31 -0.7 26 -3.1 84 84 SSW 14 22 30.2 1023 10 16.0934 0 0
7:58 am 07:58 Clear 33 0.7 26 -3.5 74 74 SW 8 13 30.16 1021 10 16.0934 0 0
8:58 am 08:58 Clear 33 0.4 25 -3.9 73 73 Calm 30.14 1021 10 16.0934 0 0
9:58 am 09:58 Clear 35 1.5 26 -3.1 72 72 W 7 11 30.11 1020 10 16.0934 0 0
10:58 am 10:58 Clear 36 2.1 27 -2.7 71 71 SW 15 24 30.09 1019 10 16.0934 0 0
11:58 am 11:58 Clear 37 2.8 26 -3.2 65 65 W 6 9 30.07 1018 10 16.0934 0 0
12:58 pm 12:58 Clear 39 4.1 25 -3.9 56 56 S 3 6 30.06 1018 10 16.0934 0 0
1:58 pm 13:58 Clear 36 2.4 24 -4.6 60 60 W 8 13 30.05 1018 10 16.0934 0 0
2:58 pm 14:58 Sunny 36 2.2 25 -3.9 64 64 SW 9 15 30.05 1018 10 16.0934 0 0
3:58 pm 15:58 Sunny 44 6.5 23 -4.9 44 44 W 12 19 30.01 1016 10 16.0934 0 0
4:58 pm 16:58 Sunny 43 6.1 26 -3.5 51 51 W 10 17 30.01 1016 10 16.0934 0 0
5:58 pm 17:58 Sunny 47 8.1 27 -2.6 47 47 W 8 13 29.97 1015 10 16.0934 0 0
6:58 pm 18:58 Sunny 47 8.6 24 -4.3 40 40 WNW 12 19 29.95 1014 10 16.0934 0 0
7:58 pm 19:58 Sunny 50 10 27 -3 40 40 W 10 17 29.91 1013 10 16.0934 0 0
8:58 pm 20:58 Sunny 49 9.7 26 -3.6 39 39 W 15 24 29.9 1013 10 16.0934 0 0
9:58 pm 21:58 Sunny 49 9.6 24 -4.3 38 38 W 17 28 29.9 1013 10 16.0934 0 0
10:58 pm 22:58 Sunny 48 9 26 -3.4 42 42 W 26 43 29.86 1011 10 16.0934 0 0
11:58 pm 23:58 Clear 47 8.1 25 -3.8 43 43 WNW 29 46 29.89 1012 10 16.0934 0 0

Powered by AerisWeather